Home   Weather   Guelph   Past weeks
Flag for Canada

Past Weather in Guelph, Ontario, Canada — Yesterday and Last 2 Weeks

Now
52 °F

Mostly cloudy.


Feels Like: 49 °F
Forecast: 52 / 34 °F
Wind: 7 mph from South

Location: Waterloo Well

Current Time: Apr 4, 2020 at 10:07:55 pm

Latest Report: Apr 4, 2020 at 9:00 pm


Visibility: 9 mi

Pressure: 30.01 "Hg

Humidity: 72%

Dew Point: 43 °F

Location of GuelphLocation

Past Weather in Guelph — Graph

°F

Guelph Temperature Yesterday

Maximum temperature yesterday: 54 °F (at 3:00 pm)
Minimum temperature yesterday: 32 °F (at 5:00 am)
Average temperature yesterday: 43 °F

High & Low Weather Summary for the Past Weeks

 TemperatureHumidityPressure
High68 °F (Mar 29, 1:48 pm)100% (Mar 23, 3:15 am)30.68 "Hg (Mar 23, 3:15 am)
Low18 °F (Mar 21, 6:00 am)22% (Apr 2, 6:00 pm)29.48 "Hg (Mar 29, 1:48 pm)
Average39 °F79%30.04 "Hg
* Reported Mar 20 9:18 pm — Apr 4 9:00 pm, Guelph. Weather by CustomWeather, © 2020

Note: Actual official high and low records may vary slightly from our data, if they occured in-between our weather recording intervals... More about our weather records

Guelph Weather History for the Previous 24 Hours

Scroll right to see more
 ConditionsComfort  
Time TempWeatherWind HumidityBarometerVisibility
9:00 pm
Sat, Apr 4
52 °FMostly cloudy.7 mph72%30.01 "Hg9 mi
8:00 pm54 °FMostly cloudy.8 mph67%30.00 "Hg9 mi
7:00 pm54 °FBroken clouds.6 mph67%29.99 "Hg9 mi
6:00 pm55 °FOvercast.3 mph63%29.98 "Hg9 mi
5:00 pm57 °FOvercast.3 mph55%29.98 "Hg9 mi
4:00 pm55 °FPartly sunny.5 mph59%30.00 "Hg9 mi
3:00 pm54 °FOvercast.5 mph63%30.03 "Hg9 mi
2:00 pm52 °FScattered clouds.2 mph62%30.05 "Hg9 mi
1:29 pm52 °FOvercast.7 mph62%30.05 "Hg9 mi
1:00 pm50 °FPartly sunny.2 mph67%30.05 "Hg9 mi
12:12 pm48 °FScattered clouds.2 mph71%30.06 "Hg9 mi
12:00 pm46 °FPartly sunny.3 mph76%30.07 "Hg9 mi
11:00 am45 °FOvercast.5 mph81%30.08 "Hg9 mi
10:45 am45 °FOvercast.3 mph87%30.08 "Hg9 mi
10:00 am43 °FLow clouds.3 mph87%30.09 "Hg9 mi
9:00 am41 °FLow clouds.5 mph93%30.08 "Hg9 mi
8:00 am39 °FLow clouds.3 mph100%30.07 "Hg9 mi
7:00 am39 °FLow clouds.2 mph93%30.05 "Hg9 mi
6:11 am39 °FFog.No wind93%30.04 "Hg6 mi
6:03 am39 °FFog.3 mph93%30.04 "Hg5 mi
5:00 am39 °FMostly cloudy.3 mph93%30.03 "Hg9 mi
4:00 am39 °FOvercast.3 mph93%30.03 "Hg9 mi
3:00 am36 °FPassing clouds.5 mph100%30.04 "Hg9 mi
2:54 am37 °FPassing clouds.3 mph93%30.04 "Hg9 mi
2:00 am39 °FPassing clouds.2 mph93%30.04 "Hg9 mi
1:00 am41 °FOvercast.No wind87%30.05 "Hg9 mi
12:00 am41 °FOvercast.5 mph87%30.05 "Hg9 mi
11:00 pm
Fri, Apr 3
43 °FOvercast.8 mph81%30.06 "Hg9 mi
10:26 pm43 °FOvercast.9 mph87%30.06 "Hg9 mi
10:00 pm43 °FOvercast.9 mph87%30.06 "Hg9 mi
Weather by CustomWeather, © 2020

See weather overview

Advertising